Location: Unspecified
(41.1637°N, 24.2901°E)
Time: 23:13:03
(UTC+01:00)

ISS - Pass Details

Date: 10 November 2019
Orbit: 412 x 421 km, 51.6° (Epoch: 15 November)

Event Time Altitude Azimuth Distance (km) Brightness Sun altitude
Exits shadow 05:00:39 19° 306° (NW) 1,083 -2.2 -12.2°
Maximum altitude 05:02:59 90° 241° (WSW) 424 -3.8 -11.8°
Drops below altitude 10° 05:06:21 10° 127° (SE) 1,494 0.2 -11.2°
Sets 05:08:26 0° 127° (SE) 2,353 1.4 -10.8°
